Location: Newark
(44.4167°N, 12.2000°E)
Time: 20:52:58
(UTC+00:00)

X-37B - Visible Passes

Search period start: 20 September 2020 00:00
Search period end: 30 September 2020 00:00
Orbit: 386 x 387 km, 45.0° (Epoch: 18 September)

Date Brightness Start Highest point End Pass type
(mag) Time Alt. Az. Time Alt. Az. Time Alt. Az.
20 Sep 0.7 03:05:33 75° NE 03:05:33 75° NE 03:08:36 10° E visible
21 Sep 4.0 02:09:45 12° E 02:09:45 12° E 02:09:59 10° E visible
21 Sep 0.6 03:42:02 30° W 03:43:27 69° SSW 03:46:37 10° ESE visible
22 Sep 2.4 02:46:20 29° E 02:46:20 29° E 02:48:04 10° E visible
22 Sep 1.7 04:18:37 11° W 04:21:18 29° SSW 04:24:08 10° SE visible
23 Sep 1.0 03:23:01 46° S 03:23:01 46° S 03:25:55 10° SE visible
24 Sep 2.3 03:59:50 17° SW 04:00:35 18° SSW 04:02:52 10° SSE visible
25 Sep 3.2 03:04:30 13° SSE 03:04:30 13° SSE 03:05:00 10° SE visible
